Wind_Speed
20 19 18 17 17 16 16 15 14 14 15 15 15 13 12 11 11 11 11 13 12 12 13 14 14 13 13 14 15 12 16 16 16 15 17 22 23 19 15 13 9 6 2 2 4 9 16
22 23 22 20 18 17 16 16 15 15 14 15 15 14 12 11 10 9 10 11 12 11 12 13 14 13 13 14 17 12 16 17 16 15 18 20 22 18 14 13 8 5 4 3 3 2 18
23 23 23 22 20 19 17 16 15 15 15 15 15 14 12 10 8 8 8 10 10 10 10 12 13 14 13 17 19 14 15 16 20 17 14 20 24 19 18 11 7 4 4 7 5 5 10
25 24 24 23 22 21 18 17 16 15 15 15 15 14 12 10 9 7 8 8 8 8 9 11 12 13 12 14 15 18 12 15 20 23 21 22 26 21 18 12 9 6 7 10 7 8 6
27 26 25 24 23 22 20 17 15 14 14 14 14 14 12 9 6 5 5 5 5 6 7 10 11 10 12 14 13 15 18 15 19 22 24 28 26 24 20 14 9 12 12 7 6 9 6
28 27 27 26 23 22 20 18 15 14 13 13 13 13 11 7 4 1 1 1 2 4 8 10 10 10 11 12 16 13 14 19 22 25 28 30 25 24 20 17 13 12 7 6 9 12 13
30 29 28 26 23 21 21 18 15 13 11 11 12 12 10 5 3 3 2 2 1 1 6 10 12 11 12 14 18 18 15 22 26 25 32 29 27 29 21 12 12 9 6 3 5 13 9
31 31 29 26 23 20 19 18 15 12 11 10 10 10 7 2 4 5 4 3 2 4 2 8 12 13 12 13 18 20 20 23 27 30 30 28 27 22 17 14 16 15 4 3 3 5 8
33 33 32 27 22 19 17 17 15 12 10 8 9 8 6 2 5 7 6 4 5 4 3 6 14 12 9 8 17 21 25 24 26 31 29 28 19 22 18 16 19 19 11 6 4 5 6
33 33 32 28 23 18 15 15 14 12 10 8 8 7 5 2 7 11 7 4 2 7 4 9 13 10 9 10 21 19 24 22 21 25 28 20 15 19 22 18 19 24 18 9 8 6 6
32 32 31 28 23 19 16 15 14 11 9 9 7 6 4 3 5 7 3 4 2 4 3 6 10 7 7 8 15 18 19 19 15 21 23 15 20 14 14 19 17 19 19 11 10 10 10
31 31 30 27 24 20 17 15 13 10 8 8 7 5 4 6 7 8 6 3 1 3 3 4 9 8 13 8 11 11 16 13 8 15 22 15 10 11 14 12 12 10 9 4 6 14 7
30 30 30 27 23 19 17 14 13 10 8 9 7 5 4 6 6 4 7 4 0 2 4 6 7 11 10 12 10 4 12 15 11 11 13 16 18 12 12 11 11 12 9 5 3 4 6
28 31 30 27 22 19 17 15 14 10 7 9 7 5 4 8 8 11 4 4 2 9 8 9 7 8 15 10 10 7 11 14 14 8 4 10 6 15 13 14 13 14 15 9 5 5 4
26 30 31 27 22 19 17 15 14 9 5 7 7 5 6 8 13 6 3 3 4 4 7 5 11 11 13 12 9 9 11 15 9 11 10 5 5 6 5 12 14 17 22 19 4 5 4
25 29 30 28 23 20 18 15 13 8 5 4 4 6 10 18 9 7 9 11 8 8 11 8 7 5 9 8 10 13 12 12 8 2 4 8 5 4 3 7 13 11 14 16 12 6 4
25 28 28 27 23 22 19 14 10 8 4 1 5 11 12 14 7 7 10 11 10 9 9 9 9 8 7 6 8 12 13 14 11 8 6 5 2 2 3 0 9 13 17 13 15 7 7
26 28 27 25 22 21 19 11 8 6 2 8 11 16 17 13 8 9 12 11 10 6 6 6 8 6 3 4 4 6 12 9 12 7 7 9 5 3 4 7 5 11 12 17 17 8 7
29 27 25 23 20 18 16 9 6 3 7 15 14 14 13 9 3 2 3 7 7 6 4 5 4 3 4 4 3 5 10 8 7 9 7 8 7 4 4 8 6 7 8 13 5 16 15
27 25 22 21 19 16 13 7 5 3 10 17 13 9 6 5 4 3 2 7 7 5 2 4 3 2 4 3 2 5 10 5 5 7 10 9 12 8 4 6 1 3 2 4 10 8 12
26 23 20 20 17 15 13 5 3 5 11 14 14 8 6 6 5 6 10 9 5 4 2 2 3 3 1 2 1 2 3 2 2 3 6 6 6 6 16 12 12 9 1 7 11 8 13
25 22 19 19 15 13 11 6 1 7 11 11 15 13 8 9 8 8 11 9 3 5 3 4 3 4 2 6 6 5 3 4 4 3 5 2 6 12 11 12 6 9 8 5 10 14 14
24 21 18 17 13 12 9 3 3 8 10 12 14 13 15 10 11 10 11 11 5 4 1 1 2 2 3 4 6 7 6 5 3 4 8 6 6 10 8 14 5 3 7 11 1 12 19
24 20 17 15 11 10 7 1 3 7 10 11 10 11 12 11 12 13 10 8 7 3 3 2 6 7 7 7 8 7 9 7 5 4 8 7 5 10 5 7 3 11 7 13 9 6 13
23 20 16 14 10 9 5 2 4 6 13 10 10 11 11 14 14 12 8 3 3 5 4 4 1 2 5 6 11 9 6 6 8 7 6 7 6 2 2 5 5 14 15 10 8 6 3
22 19 15 13 9 8 3 3 5 6 11 13 13 11 13 13 11 9 5 3 3 5 6 8 6 7 7 7 6 9 10 7 6 5 7 7 7 8 5 2 5 3 16 17 16 13 8
21 18 15 12 8 6 3 5 6 7 9 15 15 15 15 12 11 9 5 5 8 6 6 8 10 11 10 9 11 7 6 7 5 6 11 11 7 7 7 6 4 10 14 22 16 10 12
20 18 14 11 8 5 5 6 7 8 10 16 17 16 13 11 7 7 7 8 8 8 7 9 10 11 12 10 6 6 5 6 5 8 10 9 7 7 5 5 4 6 10 13 12 15 16
19 17 13 10 9 7 7 8 8 9 11 15 17 17 16 13 8 10 9 9 8 7 6 8 11 13 8 5 4 4 6 7 8 7 7 7 9 8 6 5 6 5 5 3 11 20 11
Wind_Direction
8 2 357 351 350 346 344 341 340 340 341 341 338 331 320 311 307 287 274 270 266 249 228 220 229 227 206 198 204 202 196 188 192 192 197 196 191 176 169 162 144 116 76 231 253 267 220
3 1 358 354 347 343 338 334 334 334 336 339 339 335 326 313 299 291 277 266 262 254 237 216 211 227 214 196 198 196 195 186 180 190 199 189 187 183 173 159 160 180 263 244 262 197 176
354 352 351 350 348 340 333 328 327 326 330 334 336 338 328 315 304 292 280 270 256 248 235 222 207 202 221 201 197 184 192 188 175 178 191 180 179 178 170 171 181 225 258 198 199 151 180
347 345 343 342 342 340 332 324 322 319 324 330 333 335 333 322 310 289 279 273 257 235 224 213 208 201 200 214 196 188 176 187 186 174 174 179 183 180 173 175 191 175 165 167 196 184 182
339 337 335 335 334 333 329 319 315 314 318 324 328 334 336 328 319 306 293 280 251 217 204 202 201 196 182 200 190 181 196 189 191 178 173 177 187 185 186 179 169 171 171 179 185 204 191
341 336 333 328 326 324 321 318 311 311 317 320 325 334 338 333 311 280 44 71 146 177 189 189 189 176 181 169 187 178 181 186 184 182 174 180 189 189 191 189 184 181 187 236 220 217 212
344 340 334 328 322 317 315 316 309 308 309 310 322 334 339 323 249 157 153 149 220 228 202 180 175 166 166 165 185 191 183 181 177 182 178 181 189 193 196 185 186 187 174 257 225 223 209
347 345 339 332 324 316 311 311 309 303 298 308 316 321 334 287 204 164 202 246 296 318 218 199 170 163 174 175 176 182 176 175 175 178 184 189 197 197 200 200 181 178 187 139 152 197 206
350 351 351 346 334 323 313 312 311 298 292 298 307 317 334 279 189 169 202 255 314 35 65 167 155 161 161 168 187 178 174 176 177 180 188 199 204 204 205 206 207 211 214 187 166 182 193
352 353 353 352 347 338 325 317 309 293 289 289 300 312 315 222 186 186 220 254 47 17 61 145 158 171 155 146 169 174 174 174 176 188 195 204 196 205 217 220 216 221 222 232 241 226 193
351 352 353 354 351 343 335 326 314 297 280 279 292 304 289 229 190 199 253 252 110 26 56 142 156 171 177 145 174 178 177 182 195 194 197 200 209 217 204 216 212 214 219 225 245 234 211
350 351 353 352 352 349 344 334 321 302 273 266 275 288 272 220 202 224 230 212 347 350 39 115 161 168 158 125 145 145 179 179 182 204 213 211 187 203 200 182 182 192 212 243 219 199 215
349 352 351 351 350 349 345 337 323 306 268 253 256 264 245 195 187 193 151 164 338 38 92 92 138 179 178 151 157 158 180 188 180 191 219 233 233 231 217 207 194 196 192 122 105 169 212
349 353 353 352 350 348 343 336 331 320 266 244 242 240 231 216 190 151 159 135 83 85 89 93 148 167 197 206 222 210 191 197 193 199 200 219 227 215 221 215 201 205 202 169 160 179 205
348 352 352 351 349 348 342 335 329 325 270 245 241 211 200 164 147 153 121 96 98 74 75 116 89 163 183 210 215 199 184 194 219 249 231 210 230 171 190 206 208 214 207 203 160 140 148
343 348 349 350 349 347 341 335 326 318 293 269 235 183 166 152 146 117 109 94 74 79 82 83 107 85 156 175 189 195 189 178 173 178 201 234 262 279 233 214 213 220 216 208 219 133 195
340 343 345 348 347 345 344 338 327 327 343 181 165 160 154 163 152 115 88 87 92 95 80 71 85 101 103 119 172 171 164 167 168 171 152 172 213 244 345 226 200 208 211 200 205 193 155
342 342 342 346 345 347 351 349 339 353 85 144 148 155 152 161 151 108 90 79 88 102 69 91 95 100 130 144 118 150 165 172 178 181 196 215 260 291 287 300 182 193 195 208 204 191 182
336 337 339 343 346 346 352 2 356 19 140 148 146 138 152 156 159 101 91 91 91 98 77 129 116 68 154 112 142 157 151 184 198 199 206 223 236 285 265 174 172 138 148 192 195 192 181
341 340 339 344 346 343 345 359 9 55 148 161 161 159 174 193 230 297 163 146 113 54 133 135 105 151 125 81 57 171 146 153 182 221 229 205 225 218 219 125 114 208 111 178 190 201 184
340 338 339 345 345 340 343 347 22 115 138 168 176 185 183 205 245 156 178 176 164 39 44 128 106 175 128 274 276 135 137 174 166 218 205 207 208 156 140 127 78 65 160 215 209 207 206
337 336 337 343 345 339 342 2 176 150 136 154 179 170 170 162 140 145 170 172 160 32 48 73 82 81 218 221 213 236 269 213 224 226 205 228 217 178 180 148 105 71 85 188 212 213 215
336 333 333 340 339 337 337 1 158 174 144 145 155 163 172 155 143 156 166 159 152 45 128 324 310 251 236 284 228 200 221 203 131 186 231 207 239 206 221 215 214 257 21 43 278 224 214
331 328 326 333 330 332 331 307 177 181 160 156 155 157 166 170 162 160 163 161 160 189 262 269 272 283 273 251 236 231 209 205 181 176 197 215 204 228 222 175 159 212 270 6 6 195 207
327 325 318 321 317 321 315 229 194 177 173 146 152 164 174 166 153 145 153 194 277 296 257 222 295 326 284 276 249 250 246 243 232 236 234 203 219 196 205 203 234 226 235 247 8 37 330
325 323 312 311 302 310 273 194 192 187 179 173 162 176 193 180 160 166 178 234 304 313 265 247 256 304 317 339 291 241 238 226 215 200 220 218 224 236 234 193 206 229 231 241 271 291 337
322 319 307 299 282 299 220 187 192 184 175 180 176 178 188 193 187 188 211 282 303 300 273 268 269 283 299 315 317 255 236 236 216 203 192 194 211 227 230 236 244 230 234 226 232 245 302
315 311 300 285 259 255 218 190 193 182 170 177 181 186 196 210 207 224 254 288 287 273 262 265 278 281 295 308 291 256 247 226 223 201 194 203 200 201 214 225 240 249 238 238 229 234 272
310 304 292 271 235 219 215 192 194 183 180 185 195 196 201 213 242 261 279 290 289 262 272 266 259 264 270 283 274 272 253 237 233 230 222 210 219 225 226 202 194 199 218 237 239 234 214
Height
3151 3148 3145 3142 3140 3137 3134 3131 3128 3125 3122 3120 3117 3115 3114 3111 3110 3109 3109 3110 3110 3110 3111 3114 3117 3119 3121 3123 3126 3128 3131 3134 3138 3142 3145 3149 3153 3157 3160 3162 3164 3166 3167 3168 3169 3169 3171
3151 3148 3145 3142 3139 3135 3133 3130 3127 3124 3121 3118 3116 3114 3112 3110 3108 3107 3106 3106 3108 3109 3110 3111 3114 3118 3120 3122 3123 3126 3130 3133 3136 3140 3143 3147 3153 3157 3159 3161 3164 3165 3166 3167 3168 3167 3169
3151 3147 3144 3140 3137 3134 3131 3128 3125 3122 3120 3117 3115 3112 3110 3108 3107 3106 3104 3104 3104 3106 3108 3109 3111 3113 3118 3120 3121 3124 3128 3132 3134 3139 3143 3147 3152 3156 3158 3160 3162 3163 3165 3167 3168 3169 3171
3150 3146 3142 3138 3135 3132 3129 3126 3123 3121 3118 3116 3113 3111 3109 3107 3106 3104 3104 3103 3103 3104 3106 3108 3110 3111 3114 3120 3121 3124 3127 3130 3133 3135 3140 3146 3151 3155 3158 3159 3161 3163 3165 3166 3169 3171 3172
3148 3144 3140 3136 3133 3130 3126 3123 3121 3119 3117 3114 3112 3109 3107 3106 3104 3104 3103 3103 3102 3103 3104 3106 3109 3111 3112 3117 3121 3122 3124 3128 3131 3135 3138 3143 3149 3153 3156 3158 3161 3162 3163 3166 3169 3170 3172
3145 3141 3137 3133 3129 3126 3123 3120 3119 3117 3115 3113 3111 3108 3106 3105 3104 3103 3103 3102 3102 3102 3103 3105 3107 3113 3111 3114 3119 3121 3122 3126 3130 3133 3137 3142 3147 3151 3154 3156 3159 3161 3164 3166 3168 3170 3172
3143 3138 3133 3129 3125 3122 3119 3117 3115 3114 3113 3111 3109 3108 3106 3104 3103 3104 3104 3103 3105 3105 3103 3105 3106 3107 3109 3112 3117 3121 3122 3124 3128 3133 3137 3141 3145 3147 3152 3156 3159 3161 3163 3164 3165 3169 3172
3141 3135 3130 3125 3121 3118 3116 3113 3112 3111 3110 3109 3107 3105 3104 3103 3103 3104 3103 3103 3103 3105 3104 3104 3106 3108 3110 3112 3115 3118 3122 3126 3128 3132 3136 3141 3143 3149 3152 3156 3159 3161 3163 3164 3165 3167 3170
3139 3133 3127 3122 3118 3115 3113 3111 3110 3108 3108 3107 3106 3105 3104 3103 3103 3104 3103 3104 3103 3104 3104 3105 3107 3109 3112 3114 3115 3117 3121 3125 3129 3132 3136 3140 3145 3147 3150 3154 3157 3159 3162 3164 3166 3166 3169
3137 3132 3126 3121 3117 3114 3111 3109 3107 3106 3106 3106 3105 3104 3104 3103 3105 3104 3104 3104 3104 3104 3105 3108 3109 3111 3113 3114 3117 3119 3122 3127 3130 3133 3136 3140 3144 3146 3149 3151 3155 3157 3161 3164 3165 3167 3169
3136 3131 3126 3121 3116 3112 3109 3107 3106 3104 3104 3104 3104 3103 3103 3103 3104 3104 3106 3104 3105 3105 3107 3111 3111 3113 3114 3117 3118 3120 3123 3126 3130 3134 3138 3140 3143 3145 3146 3149 3152 3156 3159 3162 3163 3165 3168
3135 3130 3125 3120 3115 3111 3108 3106 3104 3102 3102 3102 3102 3102 3101 3102 3103 3104 3104 3105 3106 3108 3108 3110 3111 3113 3115 3117 3119 3120 3123 3127 3130 3134 3136 3138 3140 3143 3145 3148 3150 3153 3156 3158 3160 3164 3167
3134 3129 3124 3119 3115 3110 3106 3103 3101 3100 3099 3099 3100 3101 3100 3101 3103 3104 3105 3106 3109 3107 3110 3112 3111 3113 3116 3118 3120 3121 3123 3126 3129 3134 3135 3137 3138 3140 3143 3145 3147 3149 3152 3157 3164 3166 3164
3133 3128 3123 3118 3113 3109 3105 3102 3099 3097 3096 3097 3098 3099 3100 3101 3102 3104 3106 3108 3108 3109 3109 3110 3110 3112 3116 3118 3119 3121 3123 3126 3129 3131 3133 3136 3137 3138 3139 3142 3144 3146 3148 3150 3158 3162 3159
3132 3127 3122 3117 3113 3108 3104 3100 3097 3095 3094 3095 3097 3098 3099 3101 3103 3105 3107 3108 3109 3110 3110 3110 3111 3113 3115 3118 3119 3121 3123 3126 3129 3129 3134 3134 3135 3135 3137 3139 3142 3143 3144 3149 3150 3153 3155
3131 3126 3121 3116 3112 3107 3103 3100 3096 3095 3094 3095 3096 3097 3100 3103 3105 3107 3108 3108 3110 3111 3111 3111 3111 3113 3115 3117 3119 3120 3122 3125 3127 3128 3130 3133 3134 3135 3136 3137 3139 3139 3143 3145 3147 3153 3155
3129 3125 3120 3115 3110 3106 3102 3099 3096 3095 3096 3096 3096 3099 3101 3104 3107 3108 3109 3110 3111 3112 3113 3114 3114 3115 3116 3117 3118 3119 3122 3125 3126 3128 3129 3131 3134 3135 3135 3135 3135 3137 3137 3140 3143 3144 3147
3128 3123 3118 3114 3109 3105 3101 3098 3096 3096 3096 3097 3097 3099 3103 3106 3110 3110 3111 3111 3113 3114 3114 3115 3116 3117 3118 3118 3119 3120 3121 3124 3126 3128 3128 3130 3131 3133 3134 3134 3134 3134 3135 3137 3137 3142 3142
3125 3120 3116 3112 3108 3104 3101 3099 3097 3096 3096 3098 3100 3103 3105 3107 3109 3111 3112 3114 3115 3115 3116 3116 3117 3118 3119 3119 3121 3120 3121 3123 3125 3126 3127 3129 3130 3131 3133 3135 3134 3133 3133 3134 3135 3136 3137
3122 3118 3114 3110 3107 3103 3101 3099 3098 3097 3097 3100 3102 3103 3106 3108 3108 3110 3112 3114 3115 3117 3117 3117 3117 3118 3120 3121 3121 3121 3121 3122 3123 3124 3126 3127 3127 3128 3132 3132 3133 3132 3131 3131 3132 3135 3135
3120 3116 3112 3109 3106 3103 3100 3098 3098 3098 3099 3102 3103 3105 3106 3107 3108 3109 3112 3114 3116 3117 3117 3117 3118 3119 3120 3121 3121 3121 3122 3123 3123 3124 3125 3126 3126 3127 3128 3130 3131 3130 3130 3130 3131 3133 3135
3118 3114 3111 3107 3105 3102 3100 3098 3098 3099 3100 3102 3103 3104 3107 3108 3109 3110 3113 3115 3117 3117 3118 3118 3119 3119 3120 3121 3121 3121 3121 3122 3122 3123 3124 3126 3127 3126 3128 3127 3130 3129 3129 3128 3129 3130 3132
3116 3112 3109 3106 3104 3101 3099 3098 3099 3100 3101 3102 3104 3106 3108 3109 3111 3113 3114 3116 3117 3118 3119 3119 3119 3119 3120 3120 3119 3120 3120 3120 3120 3121 3124 3125 3127 3127 3127 3126 3127 3129 3128 3126 3126 3127 3130
3114 3110 3106 3104 3102 3100 3099 3098 3099 3100 3101 3103 3105 3107 3109 3111 3112 3113 3114 3116 3117 3118 3118 3118 3118 3117 3118 3118 3118 3119 3119 3119 3120 3120 3122 3124 3124 3127 3126 3126 3128 3129 3127 3125 3125 3125 3128
3111 3107 3104 3102 3100 3099 3098 3097 3098 3100 3102 3103 3105 3108 3109 3110 3112 3114 3115 3116 3117 3117 3117 3117 3117 3117 3116 3117 3117 3117 3118 3118 3119 3119 3121 3122 3123 3124 3125 3125 3125 3125 3126 3129 3126 3128 3129
3107 3103 3101 3099 3098 3097 3097 3096 3098 3099 3101 3103 3105 3108 3109 3112 3114 3115 3115 3116 3116 3116 3117 3116 3116 3116 3116 3115 3114 3114 3115 3117 3117 3118 3119 3120 3122 3124 3123 3123 3124 3125 3124 3125 3126 3126 3126
3102 3099 3097 3096 3095 3095 3095 3095 3097 3099 3100 3102 3105 3107 3109 3112 3113 3114 3115 3115 3115 3115 3115 3115 3115 3115 3115 3114 3114 3114 3114 3114 3115 3115 3117 3118 3120 3121 3121 3122 3122 3123 3123 3123 3127 3129 3126
3097 3095 3093 3092 3093 3093 3093 3094 3096 3098 3100 3102 3104 3107 3110 3111 3112 3113 3114 3113 3112 3112 3113 3113 3114 3112 3113 3112 3112 3112 3112 3113 3113 3114 3114 3116 3118 3119 3120 3120 3121 3120 3121 3123 3123 3124 3126
3092 3090 3088 3089 3090 3091 3092 3093 3094 3097 3098 3100 3103 3106 3108 3111 3112 3112 3111 3111 3110 3110 3110 3110 3110 3110 3111 3111 3111 3111 3111 3111 3111 3112 3113 3116 3116 3117 3119 3119 3119 3119 3120 3120 3121 3122 3125